Location: Bu�n Treun
(12.1333°N, 108.3167°E)
Time: 00:33:59
(UTC+00:00)

SJ-6B - Pass Details

Date: 13 July 2020
Orbit: 510 x 581 km, 97.6° (Epoch: 03 August)

Event Time Altitude Azimuth Distance (km) Brightness Sun altitude
Exits shadow 12:50:23 62° 68° (ENE) 626 2.8 -21.6°
Drops below altitude 10° 12:54:16 10° 357° (N) 1,856 5.9 -22.5°
Sets 12:56:26 0° 354° (N) 2,762 6.9 -22.9°
